Location: ?????????
(53.2086°N, 54.0693°E)
Time: 11:25:56
(UTC+00:00)

Cosmos 2369 Rocket - Pass Details

Date: 08 December 2019
Orbit: 828 x 853 km, 71.0° (Epoch: 19 January)

Event Time Altitude Azimuth Distance (km) Brightness Sun altitude
Rises 12:37:44 0° 319° (NW) 3,384 5.5 -4.6°
Reaches altitude 10° 12:41:24 10° 343° (NNW) 2,452 4.5 -5.1°
Maximum altitude 12:44:28 15° 16° (NNE) 2,139 3.9 -5.5°
Drops below altitude 10° 12:47:32 10° 50° (NE) 2,457 4.0 -5.9°
Enters shadow 12:48:40 - 59° (ENE) 2,700 4.1 -6.0°
